indice_tiempo,salas_gba,espectadores_gba,espectadores_prom_gba
2005-01-01,113.0,726047.0,6425.194690265486
2005-02-01,113.0,671473.0,5942.238938053098
2005-03-01,113.0,586401.0,5189.3893805309735
2005-04-01,113.0,486050.0,4301.327433628318
2005-05-01,113.0,543846.0,4812.796460176991
2005-06-01,113.0,668999.0,5920.345132743363
2005-07-01,113.0,1446061.0,12797.0
2005-08-01,113.0,583485.0,5163.58407079646
2005-09-01,113.0,557757.0,4935.902654867256
2005-10-01,113.0,521915.0,4618.716814159292
2005-11-01,113.0,928929.0,8220.610619469027
2005-12-01,113.0,683434.0,6048.088495575221
2006-01-01,113.0,767845.0,6795.088495575221
2006-02-01,113.0,513861.0,4547.442477876106
2006-03-01,113.0,526030.0,4655.132743362832
2006-04-01,113.0,882351.0,7808.41592920354
2006-05-01,113.0,712945.0,6309.2477876106195
2006-06-01,113.0,559357.0,4950.061946902655
2006-07-01,113.0,1382266.0,12232.442477876106
2006-08-01,113.0,492764.0,4360.743362831859
2006-09-01,113.0,379532.0,3358.690265486726
2006-10-01,113.0,319036.0,2823.3274336283184
2006-11-01,113.0,340190.0,3010.5309734513276
2006-12-01,113.0,365897.0,3238.026548672566
2007-01-01,113.0,602614.0,5332.867256637168
2007-02-01,113.0,550196.0,4868.991150442478
2007-03-01,113.0,466792.0,4130.902654867256
2007-04-01,113.0,563215.0,4984.203539823009
2007-05-01,113.0,601265.0,5320.929203539823
2007-06-01,113.0,829752.0,7342.938053097345
2007-07-01,113.0,1404420.0,12428.495575221239
2007-08-01,113.0,957467.0,8473.159292035398
2007-09-01,113.0,390265.0,3453.6725663716816
2007-10-01,113.0,324134.0,2868.4424778761063
2007-11-01,113.0,327367.0,2897.0530973451328
2007-12-01,113.0,382196.0,3382.265486725664
2008-01-01,113.0,1174565.0,10394.38053097345
2008-02-01,113.0,600353.0,5312.858407079646
2008-03-01,113.0,549755.0,4865.088495575221
2008-04-01,113.0,396142.0,3505.6814159292035
2008-05-01,113.0,549679.0,4864.41592920354
2008-06-01,113.0,687462.0,6083.734513274337
2008-07-01,113.0,1301609.0,11518.663716814159
2008-08-01,113.0,1163915.0,10300.132743362832
2008-09-01,113.0,632448.0,5596.884955752213
2008-10-01,113.0,431515.0,3818.716814159292
2008-11-01,113.0,400016.0,3539.9646017699115
2008-12-01,113.0,666395.0,5897.300884955752
2009-01-01,113.0,694954.0,6150.0353982300885
2009-02-01,113.0,573839.0,5078.221238938053
2009-03-01,113.0,458605.0,4058.451327433628
2009-04-01,113.0,505592.0,4474.265486725663
2009-05-01,113.0,518932.0,4592.3185840707965
2009-06-01,113.0,567974.0,5026.3185840707965
2009-07-01,109.0,665600.0,6106.422018348624
2009-08-01,109.0,630576.0,5785.100917431193
2009-09-01,109.0,556076.0,5101.614678899083
2009-10-01,109.0,425714.0,3905.6330275229357
2009-11-01,109.0,457938.0,4201.266055045871
2009-12-01,109.0,469206.0,4304.642201834862
2010-01-01,109.0,790496.0,7252.256880733945
2010-02-01,109.0,625918.0,5742.366972477064
2010-03-01,109.0,542584.0,4977.834862385321
2010-04-01,109.0,518874.0,4760.311926605505
2010-05-01,109.0,657435.0,6031.51376146789
2010-06-01,109.0,682759.0,6263.844036697248
2010-07-01,109.0,1598562.0,14665.70642201835
2010-08-01,109.0,1167367.0,10709.788990825688
2010-09-01,109.0,578274.0,5305.266055045871
2010-10-01,109.0,452833.0,4154.431192660551
2010-11-01,117.0,599830.0,5126.752136752137
2010-12-01,117.0,468894.0,4007.641025641026
2011-01-01,117.0,941221.0,8044.623931623932
2011-02-01,117.0,736629.0,6295.974358974359
2011-03-01,117.0,652863.0,5580.025641025641
2011-04-01,117.0,777173.0,6642.504273504273
2011-05-01,117.0,868613.0,7424.042735042735
2011-06-01,117.0,822546.0,7030.307692307692
2011-07-01,117.0,1666008.0,14239.384615384615
2011-08-01,117.0,2239168.0,19138.188034188035
2011-09-01,117.0,535530.0,4577.179487179487
2011-10-01,117.0,644603.0,5509.427350427351
2011-11-01,117.0,590652.0,5048.307692307692
2011-12-01,109.0,535620.0,4913.94495412844
2012-01-01,109.0,819569.0,7518.981651376147
2012-02-01,117.0,820354.0,7011.572649572649
2012-03-01,117.0,556159.0,4753.495726495727
2012-04-01,117.0,894816.0,7648.0
2012-05-01,117.0,838486.0,7166.547008547009
2012-06-01,122.0,1076605.0,8824.631147540984
2012-07-01,122.0,1856425.0,15216.598360655738
2012-08-01,122.0,920347.0,7543.827868852459
2012-09-01,122.0,650517.0,5332.106557377049
2012-10-01,128.0,684365.0,5346.6015625
2012-11-01,128.0,640693.0,5005.4140625
2012-12-01,128.0,452996.0,3539.03125
2013-01-01,128.0,827864.0,6467.6875
2013-02-01,128.0,665696.0,5200.75
2013-03-01,128.0,626503.0,4894.5546875
2013-04-01,128.0,690968.0,5398.1875
2013-05-01,128.0,883500.0,6902.34375
2013-06-01,128.0,1265614.0,9887.609375
2013-07-01,128.0,1853949.0,14483.9765625
2013-08-01,128.0,1002534.0,7832.296875
2013-09-01,128.0,785272.0,6134.9375
2013-10-01,128.0,659825.0,5154.8828125
2013-11-01,128.0,631228.0,4931.46875
2013-12-01,128.0,416474.0,3253.703125
2014-01-01,128.0,992878.0,7756.859375
2014-02-01,128.0,737662.0,5762.984375
2014-03-01,128.0,759796.0,5935.90625
2014-04-01,128.0,830895.0,6491.3671875
2014-05-01,128.0,776143.0,6063.6171875
2014-06-01,128.0,879971.0,6874.7734375
2014-07-01,128.0,1438528.0,11238.5
2014-08-01,128.0,1022346.0,7987.078125
2014-09-01,128.0,747511.0,5839.9296875
2014-10-01,128.0,707239.0,5525.3046875
2014-11-01,128.0,733688.0,5731.9375
2014-12-01,128.0,624273.0,4877.1328125
2015-01-01,128.0,722330.0,5643.203125
2015-02-01,128.0,895407.0,6995.3671875
2015-03-01,128.0,611006.0,4773.484375
2015-04-01,128.0,1155537.0,9027.6328125
2015-05-01,128.0,1272395.0,9940.5859375
2015-06-01,128.0,1172671.0,9161.4921875
2015-07-01,128.0,1905019.0,14882.9609375
2015-08-01,128.0,1147917.0,8968.1015625
2015-09-01,128.0,671456.0,5245.75
2015-10-01,,662507.0,
2015-11-01,,588524.0,
2015-12-01,128.0,592441.0,4628.4453125
2016-01-01,128.0,715239.0,5587.8046875
2016-02-01,128.0,926724.0,7240.03125
2016-03-01,128.0,1048231.0,8189.3046875
2016-04-01,128.0,1006014.0,7859.484375
2016-05-01,128.0,1803902.0,14092.984375
2016-06-01,126.0,1222746.0,9704.333333333334
2016-07-01,126.0,1876511.0,14892.944444444445
2016-08-01,126.0,920216.0,7303.3015873015875
2016-09-01,126.0,606004.0,4809.555555555556
2016-10-01,126.0,495819.0,3935.0714285714284
2016-11-01,126.0,548115.0,4350.119047619048
2016-12-01,126.0,436675.0,3465.6746031746034
2017-01-01,126.0,905326.0,7185.126984126984
2017-02-01,126.0,1040281.0,8256.198412698413
2017-03-01,126.0,895984.0,7110.984126984127
2017-04-01,126.0,1213929.0,9634.357142857143
2017-05-01,126.0,718014.0,5698.523809523809
2017-06-01,126.0,666561.0,5290.166666666667
2017-07-01,126.0,1788893.0,14197.563492063493
2017-08-01,128.0,819096.0,6399.1875
2017-09-01,128.0,773533.0,6043.2265625
2017-10-01,128.0,565095.0,4414.8046875
2017-11-01,128.0,494467.0,3863.0234375
2017-12-01,128.0,463768.0,3623.1875
2018-01-01,128.0,910873.0,7116.1953125
2018-02-01,128.0,1388878.0,10850.609375
2018-03-01,128.0,499631.0,3903.3671875
2018-04-01,128.0,753538.0,5887.015625
2018-05-01,128.0,829140.0,6477.65625
2018-06-01,128.0,862262.0,6736.421875
2018-07-01,128.0,1726973.0,13491.9765625
2018-08-01,128.0,811830.0,6342.421875
2018-09-01,123.0,644209.0,5237.471544715447
2018-10-01,123.0,465915.0,3787.9268292682927
2018-11-01,128.0,513194.0,4009.328125
2018-12-01,128.0,447985.0,3499.8828125
2019-01-01,128.0,876478.0,6847.0
2019-02-01,128.0,515768.0,4029.0
2019-03-01,128.0,524375.0,4097.0
2019-04-01,125.0,813388.0,6355.0
2019-05-01,128.0,849699.0,6638.0
2019-06-01,128.0,1223934.0,9562.0
2019-07-01,128.0,1627706.0,12716.0
2019-08-01,128.0,761990.0,5953.0
